Location: Rosenheim
(47.8408°N, 12.2113°E)
Time: 16:58:40
(UTC+02:00)

ISS - Visible Passes

Search period start: 22 October 2019 00:00
Search period end: 31 October 2019 23:00
Orbit: 411 x 421 km, 51.6° (Epoch: 22 October)

Date Brightness Start Highest point End Pass type
(mag) Time Alt. Az. Time Alt. Az. Time Alt. Az.
24 Oct -1.0 06:49:29 10° S 06:51:56 19° SE 06:54:24 10° E visible
25 Oct -0.7 06:02:10 10° SSE 06:03:34 12° SE 06:04:57 10° ESE visible
26 Oct -2.5 06:48:00 10° SW 06:51:12 41° SSE 06:54:24 10° ENE visible
27 Oct -1.9 05:00:46 16° S 05:02:42 27° SE 05:05:36 10° E visible
28 Oct -1.2 04:14:38 17° SE 04:14:38 17° SE 04:16:34 10° E visible
28 Oct -3.8 05:47:33 12° WSW 05:50:34 86° SSE 05:53:57 10° ENE visible
29 Oct -3.4 05:01:15 45° SSW 05:01:58 59° SSE 05:05:18 10° ENE visible
30 Oct -1.5 04:14:50 25° E 04:14:50 25° E 04:16:34 10° ENE visible
30 Oct -3.5 05:47:44 18° W 05:50:04 57° NNW 05:53:24 10° ENE visible
31 Oct -3.9 05:01:14 72° NW 05:01:21 73° NNW 05:04:44 10° ENE visible
